Regional Weather Roundup
Issued by NWS

Home | Current Version | Previous Version | Graphics & Text | Print | Product List | Glossary On
Versions: 1 2 3 4 5 6 7 8 9 10 11 12 13 14 15 16 17 18 19 20 21 22 23 24 25 26 27
000
ASUS45 KSLC 240810
RWRUT

UTAH REGIONAL WEATHER ROUNDUP
NATIONAL WEATHER SERVICE SALT LAKE CITY UT
200 AM MDT THU APR 24 2014

UTZ001>011-023>025-240900-

NORTHERN UTAH

CITY           SKY/WX    TMP DP  RH WIND       PRES   REMARKS
HILL AFB       CLEAR     39  21  48 E13       30.06F WCI  31
LOGAN          CLEAR     33  27  78 CALM      30.06S
OGDEN          CLEAR     39  23  52 S9        30.05F WCI  33
PROVO AIRPORT  PTCLDY    34  21  60 E3        30.10S
SALT LAKE CITY PTCLDY    40  23  50 SE8       30.06F WCI  34
VERNAL         CLEAR     29  15  56 W5        30.07R WCI  24
WENDOVER       PTCLDY    43  16  33 N3        30.05S
HEBER CITY     CLEAR     25  19  80 CALM      30.10S
WEST JORDAN    CLEAR     36  25  64 S8        30.08F WCI  29

$$

UTZ012>022-026-027-240900-

SOUTHERN UTAH

CITY           SKY/WX    TMP DP  RH WIND       PRES   REMARKS
BRYCE CANYON   PTCLDY    24   9  52 W10       30.13R WCI  14
CEDAR CITY     CLEAR     33  12  41 CALM      30.07S
MILFORD        CLEAR     34   8  33 W8        30.08R WCI  27
MOAB/CYNLANDS  CLEAR     40   7  25 NW13      30.05R WCI  32
PRICE          CLEAR     33   8  35 CALM      30.08R
ST GEORGE      SUNNY     54  16  22 SE10      30.01S
KANAB            N/A     41  12  30 NW13      30.10

$$

REGIONAL REPORTS     COLORADO/ARIZONA

CITY           SKY/WX    TMP DP  RH WIND       PRES   REMARKS
CRAIG, CO      CLEAR     26  17  68 CALM      30.09S
GRAND JUNCTION CLEAR     38   9  30 N5        30.07R WCI  34
RIFLE          CLEAR     34  14  43 SE6       30.09R WCI  29
MONTROSE       CLEAR     34  16  47 SE7       30.11R WCI  28
CORTEZ         CLEAR     34  13  41 E5        30.07R WCI  30
PAGE, AZ       CLEAR     52  14  22 W5        30.04R
GRAND CANYON   PTCLDY    25   9  50 E6        30.11R WCI  18
KINGMAN        PTCLDY    48   6  18 S5        29.99S
FLAGSTAFF      MOCLDY    28  10  46 CALM      30.11R

$$

REGIONAL REPORTS    NEVADA/IDAHO/WYOMING

CITY           SKY/WX    TMP DP  RH WIND       PRES   REMARKS
LAS VEGAS, NV  MOCLDY    64  14  14 S8        29.91R
ELY            CLEAR     28  15  58 S13       30.09S WCI  17
ELKO           CLOUDY    37  24  59 E3        30.03S
POCATELLO, ID  CLEAR     38  25  59 S9        30.01F WCI  31
BURLEY         MOCLDY    40  28  62 S12       29.99F WCI  33
EVANSTON, WY   CLEAR     26  14  60 SW9       30.08S WCI  17
ROCK SPRINGS   CLEAR     30  13  49 W13       30.05F WCI  20

$$



USA.gov is the U.S. government's official web portal to all federal, state and local government web resources and services.